sat.trackr.live / text

‹ back to catalog

CONNECTA IOT-13

NORAD 67400 · 2026-004AP

PAYLOAD ACTIVE UNKNOWN

§ Identity

Operator
Country
TURK
Launch date
2026-01-11
Launch site
AFWTR
Launch vehicle
Mass (kg)
RCS (m²)

External: N2YO · Heavens-Above · Gunter

§ Orbital elements

Epoch: 2026-09-20T23:12:48.704832Z

Period
94.82 min
Inclination
97.4632°
Eccentricity
0.0009146
Mean motion
15.18680474 rev/d
Perigee alt
503.5 km
Apogee alt
516.1 km
Semi-major
6,888.0 km
B*
2.3464e-4
RAAN
261.6448°
Arg perigee
30.2094°
Mean anomaly
329.9666°
Rev number
3,828

§ Raw data

CONNECTA IOT-131 67400U 26004AP  26263.96723038  .00004801  00000+0  23464-3 0  99902 67400  97.4632 261.6448 0009146  30.2094 329.9666 15.18680474 38285

JSON: /api/v1/satellites/67400 · /tle

For live sub-satellite position, see the globe view (requires WebGL).

§ Visibility from observer

Set your observer location to see the next 7 days of passes ≥ 10°. The values pass through the URL so the page stays shareable.

No JS? Fill the form by hand. The geolocation button needs JavaScript.